Location: Melbourne
(37.8170°S, 144.9670°E)
Time: 10:43:46
(UTC+10:00)

Transit 2A - All Passes

Search period start: 25 April 2014 00:00
Search period end: 05 May 2014 00:00
Orbit: 600 x 963 km, 66.7° (Epoch: 23 April)

Date Brightness Start Highest point End Pass type
(mag) Time Alt. Az. Time Alt. Az. Time Alt. Az.
25 Apr - 10:16:22 10° NNE 10:20:27 29° ENE 10:24:56 10° SE daylight
25 Apr - 11:59:12 10° WNW 12:03:35 32° SW 12:08:25 10° S daylight
25 Apr - 19:03:52 10° S 19:08:57 25° SE 19:14:06 10° ENE visible
25 Apr - 20:46:27 10° SW 20:52:40 62° WNW 20:58:56 10° NNE visible
26 Apr - 09:43:53 10° NNE 09:47:16 19° ENE 09:50:53 10° ESE daylight
26 Apr - 11:25:21 10° NW 11:30:00 46° SW 11:35:12 10° SSE daylight
26 Apr - 18:30:54 10° S 18:35:14 19° SE 18:39:38 10° E visible
26 Apr - 20:12:57 10° SSW 20:19:17 85° WNW 20:25:40 10° NNE visible
26 Apr - 21:59:13 10° WSW 22:01:43 13° W 22:04:14 10° NW visible
27 Apr - 09:12:10 10° NE 09:14:08 12° E 09:16:09 10° ESE daylight
27 Apr - 10:51:42 10° NW 10:56:29 68° WSW 11:01:53 10° SSE daylight
27 Apr - 12:39:28 10° SW 12:40:59 11° SW 12:42:32 10° SSW daylight
27 Apr - 17:58:10 10° S 18:01:27 15° SE 18:04:48 10° ESE visible
27 Apr - 19:39:32 10° SSW 19:45:50 71° ESE 19:52:12 10° NE visible
27 Apr - 21:24:20 10° WSW 21:28:33 19° WNW 21:32:47 10° NW visible
28 Apr - 10:18:16 10° NNW 10:23:03 82° ENE 10:28:27 10° SSE daylight
28 Apr - 12:04:11 10° WSW 12:07:09 15° SW 12:10:17 10° S daylight
28 Apr - 17:26:07 10° SSE 17:27:36 11° SE 17:29:06 10° SE daylight
28 Apr - 19:06:12 10° SSW 19:12:20 51° ESE 19:18:32 10° NE visible
28 Apr - 20:50:10 10° SW 20:55:20 27° WNW 21:00:31 10° NNW visible
29 Apr - 09:45:03 10° N 09:49:42 54° ENE 09:54:55 10° SE daylight
29 Apr - 11:29:38 10° W 11:33:24 21° SW 11:37:28 10° S daylight
29 Apr - 18:32:57 10° SSW 18:38:46 38° SE 18:44:39 10° ENE visible
29 Apr - 20:16:17 10° SW 20:22:04 38° WNW 20:27:52 10° N visible
30 Apr - 09:12:05 10° N 09:16:25 35° ENE 09:21:13 10° SE daylight
30 Apr - 10:55:25 10° WNW 10:59:43 28° SW 11:04:25 10° S daylight
30 Apr - 17:59:48 10° S 18:05:09 28° SE 18:10:34 10° ENE visible
30 Apr - 19:42:36 10° SW 19:48:45 54° WNW 19:54:55 10° N visible
01 May - 08:39:25 10° NNE 08:43:12 23° ENE 08:47:18 10° SE daylight
01 May - 10:21:28 10° NW 10:26:06 40° SW 10:31:15 10° SSE daylight
01 May - 17:26:45 10° S 17:31:27 22° SE 17:36:13 10° E daylight
01 May - 19:09:03 10° SSW 19:15:23 75° WNW 19:21:44 10° NNE visible
01 May - 20:56:45 10° W 20:57:42 10° W 20:58:38 10° WNW visible
02 May - 08:07:16 10° NE 08:10:02 15° ENE 08:12:57 10° ESE daylight
02 May - 09:47:44 10° NW 09:52:33 58° WSW 09:57:58 10° SSE daylight
02 May - 16:53:53 10° S 16:57:42 16° SE 17:01:33 10° E daylight
02 May - 18:35:35 10° SSW 18:41:57 80° ESE 18:48:20 10° NNE visible
02 May - 20:20:52 10° WSW 20:24:33 16° WNW 20:28:13 10° NW visible
03 May - 09:14:13 10° NNW 09:19:05 86° WSW 09:24:34 10° SSE daylight
03 May - 11:00:43 10° WSW 11:03:21 14° SW 11:06:06 10° S daylight
03 May - 16:21:24 10° SSE 16:23:52 12° SE 16:26:21 10° ESE daylight
03 May - 18:02:13 10° SSW 18:08:28 58° ESE 18:14:45 10° NE visible
03 May - 19:46:29 10° SW 19:51:21 23° WNW 19:56:12 10° NNW visible
04 May - 08:40:54 10° NNW 08:45:41 64° ENE 08:51:04 10° SE daylight
04 May - 10:25:59 10° W 10:29:33 19° SW 10:33:23 10° S daylight
04 May - 17:28:56 10° SSW 17:34:55 43° SE 17:40:57 10° NE daylight
04 May - 19:12:31 10° SW 19:18:06 33° WNW 19:23:40 10° N visible
